Voltar ao catálogo

STARLINK-2164

AtivoComunicaçõesVLEO
NORAD 47750·PAYLOAD·🇺🇸 United States

Lançado Mar 4, 2021 de Cape Canaveral Space Force Station

Loading…

Próximas Passagens (próximas 24 horas)

TLE

AtualizadoSource: CelesTrak SupGP

Época: Sep 14, 2026, 20:53 UTC

1 47750C 21017AE  26257.87062500  .00067775  00000+0  20912-2 0  2578
2 47750  53.1581  33.0313 0001477 359.5688 312.5281 15.32985690    15

Acompanhe STARLINK-2164 em tempo real com AllMySat

Download on the App Store